Preview of NWS' New Version of Forecast
This preview is not operational and should not be used for support decisions.
Latest weather observations around

Salt Lake City, Salt Lake City International Airport (KSLC)

Using English Units (Switch to International System of Units)
Date/ Time (MDT) Wind (mph) Vis. (mi) Weather Sky Cond. Temp (°F) Rel. Humidity Wind Chill (°F) Heat Index (°F) Pressure Precip. (in)
Air Dwpt 6 hour Altimeter (inHg) Sea level (inHg) 1 hr 3 hr 6 hr
Max Min
Aug 23 04:54 N 9 10 Partly Cloudy SCT130 SCT170 68 34     28%     29.96 29.79      
Aug 23 03:54 NNW 7 10 Partly Cloudy SCT130 SCT170 70 37     30%     29.94 29.76      
Aug 23 02:54 NNW 8 10 Partly Cloudy FEW130 SCT170 71 37     29%   69 29.93 29.74      
Aug 23 01:54 NW 9 10 Partly Cloudy SCT130 SCT170 71 39     31%   69 29.91 29.73      
Aug 23 00:54 NW 9 10 Partly Cloudy FEW110 SCT170 72 44     37%   71 29.89 29.71      
Aug 22 23:54 NNW 13 10 Partly Cloudy FEW110 SCT170 73 47     39%   72 29.88 29.69      
Aug 22 22:54 N 8 10 Partly Cloudy FEW110 SCT170 73 49     43%   72 29.86 29.67      
Aug 22 21:54 W 6 10 Partly Cloudy FEW110 FEW160 SCT240 75 52     45%   74 29.84 29.67      
Aug 22 20:54 W 6 10 Partly Cloudy FEW130 SCT160 SCT250 78 49     36%   77 29.83 29.65      
Aug 22 19:54 NW 8 10 Partly Cloudy FEW120 SCT160 SCT250 85 42     22%   82 29.82 29.62      
Aug 22 18:54 NW 5 10 Mostly Cloudy FEW130 SCT180 BKN240 88 38     17%   84 29.81 29.62      
Aug 22 17:54 NNW 10 10 Mostly Cloudy FEW130 BKN170 BKN240 86 41     21%   83 29.83 29.64      
Aug 22 16:54 NNW 15 10 Mostly Cloudy FEW120 BKN160 BKN240 86 42     21%   83 29.83 29.64      
Aug 22 15:54 WNW 17 10 Mostly Cloudy FEW120 BKN180 BKN230 90 36     15%   86 29.82 29.63      
Aug 22 14:54 NW 16 10 Mostly Cloudy FEW110 FEW140 SCT170 BKN230 91 33     13%   87 29.83 29.63      
Aug 22 13:54 NW 11 10 Mostly Cloudy FEW120 BKN170 BKN230 91 34     13%   87 29.84 29.64      
Aug 22 12:54 NW 8 10 Mostly Cloudy FEW120 BKN170 BKN230 90 27     10%   85 29.84 29.65      
Aug 22 11:54 S 9 10 Mostly Cloudy FEW110 FEW130 SCT180 BKN230 90 24     9%   85 29.85 29.65      
Aug 22 10:54 SSW 15 10 Mostly Cloudy SCT120 BKN180 BKN230 90 25     10%   85 29.83 29.64      
Aug 22 09:54 SE 13 10 Mostly Cloudy SCT120 BKN180 BKN230 82 35     19%   80 29.82 29.63      
Aug 22 08:54 ESE 5 10 Mostly Cloudy FEW110 BKN170 BKN250 79 36     21%   78 29.83 29.64      
Aug 22 07:54 ESE 5 10 Mostly Cloudy FEW110 BKN180 BKN250 78 32     19%   76 29.84 29.64      
Aug 22 06:54 SE 6 10 Mostly Cloudy SCT140 BKN220 74 34     23%   72 29.83 29.63      
Aug 22 05:54 SE 9 10 Partly Cloudy SCT200 76 29     18%   74 29.8 29.59      
Aug 22 04:54 SE 11 10 Partly Cloudy SCT200 75 36     24%   73 29.8 29.6      
Aug 22 03:54 S 9 10 Partly Cloudy SCT200 74 39     28%   72 29.81 29.61      
Aug 22 02:54 SSE 10 10 Partly Cloudy SCT200 75 34     22%   73 29.82 29.62      
Aug 22 01:54 SE 10 10 Partly Cloudy SCT200 78 33     19%   77 29.82 29.62      
Aug 22 00:54 SSE 13 10 Partly Cloudy SCT200 78 36     22%   77 29.83 29.64      
Aug 21 23:54 S 10 10 Partly Cloudy SCT200 80 34     19%   79 29.85 29.65      
Aug 21 22:54 SSE 9 10 Partly Cloudy SCT200 79 33     19%   77 29.85 29.66      
Aug 21 21:54 SE 7 10 Partly Cloudy FEW100 SCT200 82 37     20%   80 29.88 29.69      
Aug 21 20:54 W 3 5 Haze FEW110 SCT200 85 40     20%   82 29.88 29.69      
Aug 21 19:54 N 8 10 Mostly Cloudy FEW110 FEW140 BKN230 89 43     20%   85 29.87 29.68      
Aug 21 18:54 N 9 10 Mostly Cloudy FEW110 BKN230 95 31     10%   90 29.87 29.68      
Aug 21 17:54 N 10 10 Mostly Cloudy FEW110 BKN230 97 31     10%   91 29.88 29.69      
Aug 21 16:54 NNW 9 10 Mostly Cloudy FEW110 BKN230 97 31     10%   91 29.9 29.71      
Aug 21 15:54 NW 10 10 Mostly Cloudy FEW110 BKN250 98 30     9%   92 29.93 29.74      
Aug 21 14:54 Calm 10 Mostly Cloudy FEW110 BKN250 95 27     9%   89 29.96 29.77      
Aug 21 13:54 Calm 10 Partly Cloudy FEW110 SCT250 94 25     8%   88 29.99 29.8      
Aug 21 12:54 NW 7 10 Mostly Clear FEW110 FEW250 92 33     12%   87 30.02 29.82      
Aug 21 11:54 WNW 5 10 Mostly Clear FEW100 FEW230 89 31     13%   85 30.04 29.85      
Aug 21 10:54 Calm 10 Mostly Clear FEW220 86 35     16%   83 30.05 29.86      
Aug 21 09:54 E 6 10 Mostly Clear FEW200 81 37     21%   80 30.04 29.86      
Aug 21 08:54 ESE 6 10 Mostly Clear FEW200 78 38     24%   77 30.04 29.86      
Aug 21 07:54 SE 6 10 Mostly Clear FEW200 72 40     31%   70 30.03 29.85      
Aug 21 06:54 ESE 6 10 Mostly Clear FEW250 68 36     31%     30.03 29.84      
Aug 21 05:54 SE 10 10 Clear CLR 67 42     40%     30.02 29.83      
Aug 21 04:54 SSE 10 10 Clear CLR 71 37     29%   69 30.01 29.82      
Aug 21 03:54 SE 8 10 Clear CLR 70 35     28%     30.02 29.83      
Aug 21 02:54 N 3 10 Clear CLR 70 41     35%     30.02 29.83      
Aug 21 01:54 SE 5 10 Clear CLR 72 36     27%   70 30.01 29.82      
Aug 21 00:54 SSE 8 10 Clear CLR 75 30     19%   73 30 29.81      
Aug 20 23:54 SE 8 10 Clear CLR 76 29     18%   74 30 29.81      
Aug 20 22:54 SE 7 10 Clear CLR 78 30     17%   76 30 29.81      
Aug 20 21:54 Calm 10 Clear CLR 81 44     27%   80 30 29.82      
Aug 20 20:54 NNW 9 7 Mostly Clear FEW180 83 43     24%   81 29.98 29.8      
Aug 20 19:54 NNW 11 10 Mostly Clear FEW180 90 35     14%   86 29.97 29.78      
Aug 20 18:54 W 7 10 Mostly Clear FEW170 96 24     8%   90 29.97 29.78      
Aug 20 17:54 SSE 13 10 Mostly Clear FEW170 97 22     7%   90 29.98 29.78      
Aug 20 16:54 SSE 7 10 Mostly Clear FEW170 FEW230 97 22     7%   90 29.99 29.8      
Aug 20 15:54 S 9 10 Mostly Clear FEW170 FEW230 96 22     7%   90 30.01 29.81      
Aug 20 14:54 SSE 15 10 Mostly Clear FEW170 FEW230 96 22     7%   90 30.03 29.84      
Aug 20 13:54 S 14 10 Mostly Clear FEW170 FEW230 94 23     8%   88 30.05 29.86      
Aug 20 12:54 S 17 10 Mostly Clear FEW160 FEW230 93 25     9%   87 30.06 29.87      
Aug 20 11:54 S 18 10 Mostly Clear FEW230 91 26     10%   86 30.08 29.88      
Aug 20 10:54 SSE 13 10 Mostly Clear FEW011 FEW230 87 29     12%   83 30.09 29.9      
Aug 20 09:54 SE 15 10 Mostly Clear FEW170 FEW230 82 36     19%   80 30.08 29.91      
Aug 20 08:54 SE 13 10 Mostly Clear FEW170 FEW230 79 34     20%   77 30.08 29.9      
Aug 20 07:54 SSE 11 10 Mostly Clear FEW170 FEW230 74 34     23%   72 30.07 29.88      
Aug 20 06:54 SE 11 10 Mostly Clear FEW130 FEW150 71 36     28%   69 30.06 29.87      
Aug 20 05:54 SSE 11 10 Partly Cloudy SCT180 72 38     29%   70 30.05 29.85      
May 15 10:54 Calm 10 Clear CLR 62 44     52%     30.05 29.96      
May 15 02:54 NNE 11 10 Partly Cloudy FEW080 SCT120 52 45     76%     30.04        
May 14 20:54 N 7 8 Rain FEW040 BKN045 BKN080 52 50     94%     30.08        
May 14 18:54 ESE 7 6 Clear   57        %     30.08        
Notice The following observation data may not be complete
May 13 18:54   10 Mostly Cloudy FEW050 SCT090 BKN120 BKN230          %     29.96 29.89      
May 12 23:54 WNW 3 10 Mostly Clear FEW200 48 40     73% 47   29.98 29.93      
May 12 15:03 WSW 13 10 Cloudy FEW035 BKN048 BKN130 OVC200 51 43     74%     29.89        
May 11 10:29 NNW 24 10 Cloudy and Windy SCT026 BKN031 BKN042 OVC140 54 44     69%     29.77        
May 11 10:11   10 Cloudy FEW021 BKN026 BKN042 OVC130 54 43     66%     29.76        
May 11 09:54   10 Cloudy FEW021 BKN035 BKN043 OVC130 55 43     64%     29.76 29.65      
May 11 06:54 SSE 5 10 Light Rain FEW055 SCT070 OVC100 56 51     84%     29.74 29.61 0    
Jun 11 16:54   10 Mostly Cloudy BKN110 BKN150 BKN190 90 30     12%   86 29.54 29.37      
Jun 11 15:54   10 Mostly Cloudy BKN110 BKN190 91 28     10%   86   29.39      
Jun 11 13:54 S 21 10 Partly Cloudy and Windy SCT110 SCT130 88 33     14%   84 29.62 29.45      
Jun 10 21:54 NNW 10 10 Mostly Clear FEW120 72 42     34%   70 29.68 29.53      
Jun 10 09:54 Calm 10 Mostly Clear FEW110 FEW140 FEW200 68 44     42%     29.76 29.63      
Jun 09 10:54   10 Mostly Cloudy FEW130 BKN240 75 40     28%   74 29.82 29.64      
Jun 08 22:54   10 Clear   84 24     11%   81 29.77 29.57      
Jun 08 14:54 S 25 10 Mostly Cloudy and Windy FEW160 BKN200 BKN240 95 17     6%   88 29.84 29.64      
Jun 08 13:54 SSE 25 10 Mostly Cloudy and Windy FEW170 BKN210 BKN240 92 22     8%   86 29.86 29.66      
Jun 08 06:54 SSE 16 10 Clear   74 33     22%   72 29.92 29.72      
Jun 06 10:54 NNW 7 10 Mostly Clear FEW250 83 49     31%   81 30.04 29.87